Weather reports worldwide

Advertisment
Holbeach, United Kingdom (3469): temperature & dewpoint: 10.09.2019 16:00:00 - 16.09.2019 16:00:00 (BST)Holbeach, United Kingdom (3469): temperature -20cm & temperature -100cm: 10.09.2019 16:00:00 - 16.09.2019 16:00:00 (BST)Holbeach, United Kingdom (3469): wind speed & gusts: 10.09.2019 16:00:00 - 16.09.2019 16:00:00 (BST)Holbeach, United Kingdom (3469): wind direction: 10.09.2019 16:00:00 - 16.09.2019 16:00:00 (BST)Holbeach, United Kingdom (3469): reduced air pressure: 10.09.2019 16:00:00 - 16.09.2019 16:00:00 (BST)Holbeach, United Kingdom (3469): visibility: 10.09.2019 16:00:00 - 16.09.2019 16:00:00 (BST)Holbeach, United Kingdom (3469): precipitation: 10.09.2019 16:00:00 - 16.09.2019 16:00:00 (BST)
Date & Time tt [°C] td [°C] tt -20cm [°C] tt -100cm [°C] ff [km/h] ff [kn] fx [km/h] fx [kn] dd ppp [hPa] vv [km] rr [mm]
16.09.2019 16:00:00 14,8 12,8 - - 5 3 - - E 1022,7 19 0,0
16.09.2019 15:00:00 14,5 12,3 - - 5 3 - - NE 1022,7 15 0,0
16.09.2019 14:00:00 14,3 12,4 - - 9 5 - - NNE 1022,8 12 0,0
16.09.2019 13:00:00 14,0 13,5 - - 8 4 - - NE 1022,7 10 0,0
16.09.2019 12:00:00 13,1 12,8 - - 11 6 - - N 1022,7 3,5 0,0
16.09.2019 11:00:00 13,0 12,7 - - 13 7 - - NNE 1022,4 8 0,0
16.09.2019 10:00:00 12,7 12,6 16,0 15,7 18 10 - - NNE 1022,2 5 0,0
16.09.2019 09:00:00 13,0 13,0 - - 16 9 - - NNE 1021,8 3,1 0,2
16.09.2019 08:00:00 12,9 12,9 - - 15 8 - - NE 1021,4 4,6 0,2
16.09.2019 07:00:00 13,1 13,1 - - 9 5 - - E 1021,2 6 0,0
16.09.2019 06:00:00 13,0 13,0 - - 8 4 - - E 1020,8 13 0,2
16.09.2019 05:00:00 13,1 13,1 - - 11 6 - - E 1020,9 4,9 1,2
16.09.2019 04:00:00 13,4 13,3 - - 9 5 - - NE 1021,4 2,9 1,0
16.09.2019 03:00:00 13,5 13,2 - - 5 3 - - E 1021,7 3,0 0,8
16.09.2019 02:00:00 13,7 13,2 - - 0 0 - - N 1021,9 9 0,6
16.09.2019 01:00:00 13,9 13,5 - - 4 2 - - SSW 1022,3 7 0,6
16.09.2019 00:00:00 14,0 13,4 - - 0 0 - - N 1022,6 11 0,6
15.09.2019 23:00:00 14,0 13,5 - - 2 1 - - SE 1022,8 12 0,2
15.09.2019 22:00:00 14,0 13,3 - - 8 4 - - E 1022,7 21 0,0
15.09.2019 21:00:00 14,2 12,9 - - 4 2 - - E 1022,9 40 0,0
15.09.2019 20:00:00 14,6 12,6 - - 11 6 - - NNE 1023,2 9 0,0
15.09.2019 19:00:00 15,9 12,6 - - 16 9 - - ENE 1022,8 30 0,0
15.09.2019 18:00:00 16,4 11,7 - - 16 9 - - ENE 1022,9 40 0,0
15.09.2019 17:00:00 18,2 14,7 - - 15 8 - - N 1022,8 50 0,0
15.09.2019 16:00:00 19,4 14,4 - - 15 8 - - NW 1022,8 50 0,0
15.09.2019 15:00:00 20,9 13,7 - - 21 11 - - WNW 1022,9 45 0,0
15.09.2019 14:00:00 21,1 14,4 - - 21 11 - - W 1023,1 35 0,0
15.09.2019 13:00:00 20,4 14,2 - - 22 12 - - W 1023,5 50 0,0
15.09.2019 12:00:00 20,0 14,6 - - 21 11 - - WNW 1023,6 40 0,0
15.09.2019 11:00:00 19,8 14,4 - - 18 10 - - WNW 1023,6 35 0,0
15.09.2019 10:00:00 18,3 13,5 15,7 15,7 16 9 - - WSW 1023,8 35 0,0
15.09.2019 09:00:00 15,9 12,1 - - 13 7 - - WSW 1023,5 50 0,0
15.09.2019 08:00:00 12,7 10,2 - - 15 8 - - SW 1023,3 50 0,0
15.09.2019 07:00:00 11,2 9,1 - - 21 11 - - SW 1022,9 29 0,0
15.09.2019 06:00:00 11,6 9,2 - - 21 11 - - SW 1022,7 50 0,0
15.09.2019 05:00:00 11,2 8,7 - - 16 9 - - SW 1023,2 45 0,0
15.09.2019 04:00:00 11,0 8,4 - - 18 10 - - SW 1023,5 40 0,0
15.09.2019 03:00:00 10,9 8,2 - - 16 9 - - SW 1024,0 45 0,0
15.09.2019 02:00:00 11,7 8,3 - - 18 10 - - WSW 1024,7 40 0,0
15.09.2019 01:00:00 11,7 8,3 - - 18 10 - - WSW 1025,1 45 0,0
15.09.2019 00:00:00 12,1 7,5 - - 15 8 - - SW 1025,5 50 0,0
14.09.2019 23:00:00 12,8 7,8 - - 18 10 - - SW 1026,1 50 0,0
14.09.2019 22:00:00 11,9 7,9 - - 15 8 - - SW 1026,6 45 0,0
14.09.2019 21:00:00 12,8 7,9 - - 11 6 - - SW 1027,1 45 0,0
14.09.2019 20:00:00 13,8 8,5 - - 15 8 - - SW 1027,4 50 0,0
14.09.2019 19:00:00 17,3 8,8 - - 11 6 - - SW 1027,9 50 0,0
14.09.2019 18:00:00 20,0 7,4 - - 16 9 - - WSW 1028,0 50 0,0
14.09.2019 17:00:00 19,6 7,9 - - 18 10 - - SW 1028,5 45 0,0
14.09.2019 16:00:00 20,2 7,6 - - 18 10 - - SW 1029,5 23 0,0
14.09.2019 15:00:00 20,5 7,2 - - 16 9 - - SW 1030,6 50 0,0
14.09.2019 14:00:00 20,3 8,7 - - 16 9 - - SW 1031,5 40 0,0
14.09.2019 13:00:00 19,0 8,5 - - 18 10 - - SW 1032,5 30 0,0
14.09.2019 12:00:00 18,3 8,2 - - 18 10 - - SSW 1033,6 30 0,0
14.09.2019 11:00:00 17,1 9,3 - - 16 9 - - SW 1034,3 19 0,0
14.09.2019 10:00:00 14,4 10,8 15,7 15,9 9 5 - - WSW 1034,6 29 0,0
14.09.2019 09:00:00 11,8 11,0 - - 9 5 - - SW 1034,5 28 0,0
14.09.2019 08:00:00 8,1 8,1 - - 11 6 - - SSW 1034,9 30 0,0
14.09.2019 07:00:00 5,7 5,7 - - 8 4 - - SSW 1034,9 23 0,0
14.09.2019 06:00:00 5,5 5,5 - - 8 4 - - SSW 1035,1 21 0,0
14.09.2019 05:00:00 5,7 5,6 - - 8 4 - - S 1035,5 21 0,0
14.09.2019 04:00:00 5,8 5,6 - - 5 3 - - S 1035,8 26 0,0
14.09.2019 03:00:00 6,3 5,8 - - 5 3 - - S 1036,3 23 0,0
14.09.2019 02:00:00 7,1 6,5 - - 9 5 - - SSE 1036,5 35 0,0
14.09.2019 01:00:00 8,4 7,4 - - 8 4 - - SE 1036,9 35 0,0
14.09.2019 00:00:00 8,3 6,9 - - 5 3 - - SE 1036,6 45 0,0
13.09.2019 23:00:00 10,1 8,3 - - 9 5 - - SSE 1036,5 50 0,0
13.09.2019 22:00:00 10,0 8,8 - - 9 5 - - SE 1036,8 40 0,0
13.09.2019 21:00:00 11,2 9,4 - - 11 6 - - ESE 1036,5 35 0,0
13.09.2019 20:00:00 12,2 9,0 - - 15 8 - - E 1036,2 50 0,0
13.09.2019 19:00:00 14,7 10,3 - - 18 10 - - ENE 1035,9 50 0,0
13.09.2019 18:00:00 16,2 9,7 - - 16 9 - - ENE 1035,8 35 0,0
13.09.2019 17:00:00 16,4 8,8 - - 18 10 - - E 1035,8 40 0,0
13.09.2019 16:00:00 16,9 9,4 - - 15 8 - - E 1035,9 40 0,0
13.09.2019 15:00:00 17,5 9,2 - - 11 6 - - E 1035,8 21 0,0
13.09.2019 14:00:00 17,2 9,8 - - 13 7 - - E 1035,8 30 0,0
13.09.2019 13:00:00 17,6 8,9 - - 11 6 - - N 1036,0 35 0,0
13.09.2019 12:00:00 16,7 8,9 - - 15 8 - - N 1035,9 40 0,0
13.09.2019 11:00:00 15,5 9,0 - - 16 9 - - N 1035,7 24 0,0
13.09.2019 10:00:00 13,7 9,2 16,0 15,9 22 12 - - NNW 1035,4 27 0,0
13.09.2019 09:00:00 12,3 9,9 - - 18 10 - - NNW 1034,7 40 0,0
13.09.2019 08:00:00 10,3 9,1 - - 13 7 - - NW 1033,8 35 0,0
13.09.2019 07:00:00 9,5 7,6 - - 15 8 - - NW 1033,1 50 0,0
13.09.2019 06:00:00 9,9 7,5 - - 15 8 - - NW 1032,2 45 0,0
13.09.2019 05:00:00 10,9 8,0 - - 22 12 - - NNW 1031,5 50 0,0
13.09.2019 04:00:00 12,4 8,8 - - 22 12 - - NW 1031,0 22 0,0
13.09.2019 03:00:00 13,4 12,0 - - 22 12 - - NW 1029,8 40 0,0
13.09.2019 02:00:00 14,2 12,5 - - 18 10 - - NW 1029,0 50 0,0
13.09.2019 01:00:00 15,9 13,3 - - 21 11 - - NW 1028,2 50 0,0
13.09.2019 00:00:00 17,0 15,4 - - 24 13 - - W 1027,2 30 0,0
12.09.2019 23:00:00 17,7 14,6 - - 16 9 - - WSW 1026,7 35 0,0
12.09.2019 22:00:00 17,9 14,2 - - 22 12 - - WSW 1026,1 27 0,0
12.09.2019 21:00:00 18,6 14,3 - - 26 14 - - WSW 1025,4 35 0,0
12.09.2019 20:00:00 19,5 13,9 - - 22 12 - - WSW 1024,8 10 0,0
12.09.2019 19:00:00 20,5 14,5 - - 26 14 46 25 W 1024,4 10 0,0
12.09.2019 18:00:00 21,8 16,1 - - 31 17 54 29 WSW 1023,9 40 0,0
12.09.2019 17:00:00 22,6 16,8 - - 35 19 55 30 WSW 1023,6 40 0,0
12.09.2019 16:00:00 23,1 16,5 - - 41 22 55 30 WSW 1023,7 40 0,0
12.09.2019 15:00:00 23,1 17,6 - - 29 16 - - WSW 1023,9 40 0,0
12.09.2019 14:00:00 21,9 16,7 - - 28 15 46 25 WSW 1024,3 50 0,0
12.09.2019 13:00:00 21,1 15,0 - - 34 18 46 25 WSW 1024,6 30 0,0
12.09.2019 12:00:00 21,0 16,6 - - 29 16 46 25 WSW 1024,9 30 0,0
12.09.2019 11:00:00 18,8 14,9 - - 28 15 - - WSW 1025,3 10 0,0
12.09.2019 10:00:00 18,0 14,2 15,7 15,9 22 12 - - WSW 1025,3 20 0,0
12.09.2019 09:00:00 15,4 13,3 - - 24 13 - - WSW 1024,8 25 0,0
12.09.2019 08:00:00 12,8 12,1 - - 21 11 - - SW 1024,5 20 0,0
12.09.2019 07:00:00 10,9 10,6 - - 18 10 - - SW 1024,1 21 0,0
12.09.2019 06:00:00 10,2 9,5 - - 13 7 - - SW 1023,7 25 0,0
12.09.2019 05:00:00 10,5 9,7 - - 15 8 - - SW 1023,3 22 0,0
12.09.2019 04:00:00 11,6 10,4 - - 15 8 - - WSW 1023,7 24 0,0
12.09.2019 03:00:00 11,2 10,6 - - 13 7 - - WSW 1023,4 30 0,0
12.09.2019 02:00:00 10,9 10,2 - - 9 5 - - SW 1023,1 28 0,0
12.09.2019 01:00:00 10,7 10,0 - - 11 6 - - SW 1022,6 29 0,0
12.09.2019 00:00:00 10,4 9,4 - - 9 5 - - SSW 1022,4 30 0,0
11.09.2019 23:00:00 11,1 9,3 - - 11 6 - - SW 1022,0 40 0,0
11.09.2019 22:00:00 11,2 9,0 - - 8 4 - - SW 1021,3 40 0,0
11.09.2019 21:00:00 13,2 9,0 - - 8 4 - - NW 1021,0 40 0,0
11.09.2019 20:00:00 15,3 9,2 - - 16 9 - - NW 1020,4 45 0,0
11.09.2019 19:00:00 17,8 10,2 - - 22 12 - - NW 1019,3 25 0,0
11.09.2019 18:00:00 20,2 11,3 - - 22 12 - - NW 1018,4 35 0,0
11.09.2019 17:00:00 21,2 12,5 - - 29 16 - - NW 1017,6 50 0,0
11.09.2019 16:00:00 22,5 14,1 - - 28 15 - - WNW 1016,7 50 0,0
11.09.2019 15:00:00 21,4 16,0 - - 28 15 54 29 WNW 1016,3 10 0,0
11.09.2019 14:00:00 22,5 17,4 - - 35 19 55 30 WSW 1015,6 40 0,0
11.09.2019 13:00:00 21,1 17,2 - - 41 22 50 27 W 1015,4 10 0,0
11.09.2019 12:00:00 20,6 16,2 - - 35 19 52 28 WSW 1015,1 30 0,0
11.09.2019 11:00:00 19,2 16,3 - - 31 17 - - WSW 1014,9 45 0,0
11.09.2019 10:00:00 16,4 14,4 15,7 16,0 31 17 46 25 SW 1014,8 40 0,0
11.09.2019 09:00:00 15,4 13,6 - - 35 19 - - SSW 1014,5 30 0,0
11.09.2019 08:00:00 13,4 12,0 - - 29 16 46 25 SW 1014,9 35 0,0
11.09.2019 07:00:00 12,9 11,4 - - 34 18 46 25 SW 1014,7 30 0,0
11.09.2019 06:00:00 12,3 10,9 - - 29 16 - - SSW 1014,9 27 0,2
11.09.2019 05:00:00 13,2 10,7 - - 29 16 - - SSW 1015,3 29 0,0
11.09.2019 04:00:00 13,7 11,0 - - 29 16 - - SW 1016,5 40 0,0
11.09.2019 03:00:00 13,6 9,9 - - 26 14 - - SSW 1016,8 50 0,0
11.09.2019 02:00:00 13,5 10,2 - - 21 11 - - SW 1017,5 30 0,0
11.09.2019 01:00:00 13,2 10,6 - - 18 10 - - SW 1018,0 50 0,0
11.09.2019 00:00:00 12,7 10,6 - - 15 8 - - SW 1018,1 40 0,0
10.09.2019 23:00:00 11,9 10,3 - - 11 6 - - SSW 1018,6 40 0,0
10.09.2019 22:00:00 10,4 9,3 - - 9 5 - - SSW 1018,7 35 0,0
10.09.2019 21:00:00 10,3 8,4 - - 11 6 - - SW 1018,9 45 0,0
10.09.2019 20:00:00 11,8 8,9 - - 9 5 - - WSW 1018,9 50 0,0
10.09.2019 19:00:00 15,4 9,9 - - 13 7 - - W 1018,9 40 0,0
10.09.2019 18:00:00 16,9 10,4 - - 13 7 - - W 1018,8 35 0,0
10.09.2019 17:00:00 17,7 10,6 - - 21 11 - - W 1018,6 45 0,0
10.09.2019 16:00:00 17,5 10,4 - - 15 8 - - WNW 1019,1 50 0,0

tt = temperature
td = dewpoint
tt -20cm = temperature -20cm
tt -100cm = temperature -100cm
ff = wind speed
fx = gusts
dd = wind direction
ppp = reduced air pressure
vv = visibility
rr = precipitation

Next stations